RJFORJOO

Guest
Details From RJFO - OITA
To RJOO - OSAKA INTL
Flight Number -
Tags generated
Created
Modified
Stats Distance 200 nm / 371 km
Max Altitude 23,100 ft / 7,041 m
Waypoints 3
Social Downloads 0
Likes 0
Share VATSIM

Download

Looking for another format? Having issues loading an existing format? Contact us
Advertisement - Login to hide

Notes

Basic altitude profile: - Ascent Rate: 2500ft/min - Ascent Speed: 250kts - Cruise Altitude: 150000ft - Cruise Speed: 420kts - Descent Rate: 1500ft/min - Descent Speed: 250kts Options: - Use NATs: yes - Use PACOTS: yes - Use low airways: yes - Use high airways: no

Route

RJFO SAKAI RJOO

ID Type Via Altitude Latitude Longitude Leg Dist Tot Dist Heading (true) Name
O RJFO APT - 0 ft / 0 m 33.47950˚ 131.73712˚ - 0 nm - OITA
SAKAI FIX - 23,100 ft / 7,041 m 34.04014˚ 133.45794˚ 92 nm 92 nm 68° / 69° -
O RJOO APT - 0 ft / 0 m 34.78560˚ 135.43802˚ 107 nm 200 nm 65° / 66° OSAKA INTL

Altitude Profile

Advertisement - Login to hide

Weather


0- 5 10 15 20 25 30 35+ Temperature / ° C

Clouds and Precipitation
Forecast for 2018-05-21 06:00 UTC. Updated 4 hours ago

Ground ~20,000 ft ~40,000 ft Winds

RJFO

Details ICAO RJFO (OIT)
Name OITA
Region Japan
Timezone Asia/Tokyo (UTC+9.0)
Stats Elevation 19 ft / 6 m (AMSL)
Location 33.479503° 131.737125°
Runways 1
Magnetic Variation 7.454° W

METAR

RJFO 210900Z 18006KT 9999 FEW030 BKN060 19/15 Q1017

Decode

TAF

TAF RJFO 210506Z 2106/2212 13010KT 9999 FEW030 SCT050 BECMG 2115/2117 07007KT BECMG 2206/2209 15003KT

Decode

Departure Runways

ID Width Length Bearing (true) Bearing (mag) Surface Threshold Offset Overrun Length
01 150 ft / 46 m 9,869 ft / 3,008 m 0.42° 7.87° Asphalt 0 ft / 0 m 200 ft / 61 m
19 150 ft / 46 m 9,869 ft / 3,008 m 180.42° 187.87° Asphalt 0 ft / 0 m 200 ft / 61 m

RJOO

Details ICAO RJOO (ITM)
Name OSAKA INTL
Region Japan
Timezone Asia/Tokyo (UTC+9.0)
Stats Elevation 50 ft / 15 m (AMSL)
Location 34.785603° 135.438019°
Runways 2
Magnetic Variation 7.707° W

METAR

RJOO 210900Z 23009KT 190V260 CAVOK 22/06 Q1017 RMK A3005

Decode

TAF

TAF RJOO 210508Z 2106/2212 08008KT 9999 FEW030

Decode

Destination Runways

ID Width Length Bearing (true) Bearing (mag) Surface Threshold Offset Overrun Length
14L 150 ft / 46 m 5,999 ft / 1,829 m 135.13° 142.84° Asphalt 0 ft / 0 m 678 ft / 207 m
14R 200 ft / 61 m 9,846 ft / 3,001 m 135.13° 142.84° Concrete 0 ft / 0 m 240 ft / 73 m
32L 200 ft / 61 m 9,846 ft / 3,001 m 315.15° 322.86° Concrete 0 ft / 0 m 249 ft / 76 m
32R 150 ft / 46 m 5,999 ft / 1,829 m 315.14° 322.85° Asphalt 0 ft / 0 m 571 ft / 174 m

Approach Navaids

Runway Type Ident Frequency Range Bearing (true) Bearing (mag) Slope Elevation
32L Localiser ISK 110.10 MHz 18 nm / 33 km 315.13° 322.84° - 50 ft / 15 m (AMSL)
32L Glidescope ISK 110.10 MHz 10 nm / 19 km 315.14° 322.85° 3.00° 54 ft / 16 m (AMSL)

Popular Alternatives